Location: Kańczuga
(49.9832°N, 22.4129°E)
Time: 01:37:12
(UTC+01:00)

ISS - Visible Passes

Search period start: 23 January 2019 00:00
Search period end: 02 February 2019 00:00
Orbit: 404 x 411 km, 51.6° (Epoch: 23 January)

Date Brightness Start Highest point End Pass type
(mag) Time Alt. Az. Time Alt. Az. Time Alt. Az.
23 Jan -1.5 18:39:54 10° SW 18:41:04 19° SSW 18:41:04 19° SSW visible
24 Jan -2.4 17:49:03 10° SSW 17:51:46 24° SE 17:52:03 23° SE visible
24 Jan -0.3 19:24:42 10° WSW 19:24:46 10° WSW 19:24:46 10° WSW visible
25 Jan -1.7 16:58:34 10° S 17:00:36 15° SE 17:02:39 10° E visible
25 Jan -2.6 18:33:23 10° WSW 18:35:40 39° SW 18:35:40 39° SW visible
26 Jan -3.2 17:42:12 10° SW 17:45:21 43° SSE 17:46:30 30° ESE visible
26 Jan -0.7 19:18:32 10° W 19:19:13 15° W 19:19:13 15° W visible
27 Jan -2.5 16:51:11 10° SSW 16:54:05 29° SSE 16:57:00 10° E visible
27 Jan -3.5 18:27:06 10° WSW 18:30:00 65° W 18:30:00 65° W visible
28 Jan -3.8 17:35:43 10° WSW 17:39:01 75° SSE 17:40:44 26° ENE visible
28 Jan -1.0 19:12:22 10° W 19:13:26 19° WNW 19:13:26 19° WNW visible
29 Jan -3.7 18:20:53 10° W 18:24:08 66° NNW 18:24:08 66° NNW visible
30 Jan -3.8 17:29:24 10° W 17:32:43 76° NNW 17:34:49 21° ENE visible
30 Jan -1.4 19:06:06 10° WNW 19:07:31 23° WNW 19:07:31 23° WNW visible
31 Jan -3.8 18:14:37 10° W 18:17:55 63° N 18:18:11 60° NNE visible
01 Feb -3.6 17:23:07 10° W 17:26:25 64° N 17:28:51 17° ENE visible
01 Feb -1.8 18:59:46 10° WNW 19:01:34 29° WNW 19:01:34 29° WNW visible
